JAL154 RJBD-RJSS

Flight info

Callsign JAL154
Flight time 1h 0m
Altitude 37000
Route RJBD/33 KEC2 KEC Y12 NAKTU Y88 TENRU Y15 OWLET OWLEEB RJSS/27
Aircraft B738/M-V/N

Departure

Time 2026-04-16 03:12
Airport Nanki Shirahama Airport (RJBD)

Arrival

Time 2026-04-16 04:13
Airport Sendai Airport (RJSS)
Time Latitude Longitude Altitude Speed Heading
2026-04-16 02:57 33.66277 135.36092 309 ft 0 kts 231°
2026-04-16 03:06 33.66282 135.36099 309 ft 2 kts 230°
2026-04-16 03:06 33.66301 135.36127 306 ft 2 kts 230°
2026-04-16 03:07 33.66311 135.36139 305 ft 2 kts 182°
2026-04-16 03:07 33.66322 135.36133 305 ft 0 kts 125°
2026-04-16 03:07 33.66330 135.36116 306 ft 2 kts 103°
2026-04-16 03:07 33.66330 135.36102 307 ft 0 kts 78°
2026-04-16 03:08 33.66329 135.36096 307 ft 0 kts 76°
2026-04-16 03:09 33.66330 135.36105 307 ft 3 kts 81°
2026-04-16 03:10 33.66351 135.36195 300 ft 16 kts 57°
2026-04-16 03:10 33.66334 135.36346 288 ft 25 kts 138°
2026-04-16 03:10 33.66159 135.36528 272 ft 38 kts 141°
2026-04-16 03:10 33.65916 135.36758 258 ft 44 kts 146°
2026-04-16 03:11 33.65665 135.36987 255 ft 41 kts 142°
2026-04-16 03:11 33.65557 135.37111 255 ft 2 kts 53°
2026-04-16 03:11 33.65584 135.37093 255 ft 7 kts 310°
2026-04-16 03:11 33.65795 135.36882 255 ft 78 kts 321°
2026-04-16 03:12 33.66471 135.36220 297 ft 148 kts 322°
2026-04-16 03:12 33.67384 135.35300 1102 ft 152 kts 322°
2026-04-16 03:12 33.68089 135.34245 2054 ft 160 kts 298°
2026-04-16 03:12 33.68127 135.32834 2628 ft 188 kts 260°
2026-04-16 03:13 33.67392 135.31451 3187 ft 212 kts 226°
2026-04-16 03:13 33.66056 135.30498 3674 ft 235 kts 204°
2026-04-16 03:13 33.64462 135.29802 4192 ft 254 kts 193°
2026-04-16 03:13 33.62657 135.29619 4821 ft 265 kts 170°
2026-04-16 03:14 33.60825 135.30122 5420 ft 274 kts 151°
2026-04-16 03:14 33.59201 135.31261 5970 ft 278 kts 130°
2026-04-16 03:14 33.58035 135.33064 6639 ft 274 kts 108°
2026-04-16 03:14 33.57328 135.35213 7414 ft 277 kts 101°
2026-04-16 03:15 33.56714 135.37434 8267 ft 281 kts 100°
2026-04-16 03:15 33.56100 135.39668 9092 ft 286 kts 101°
2026-04-16 03:15 33.55465 135.41945 9900 ft 292 kts 102°
2026-04-16 03:15 33.54803 135.44295 10496 ft 305 kts 102°
2026-04-16 03:16 33.54111 135.46755 11029 ft 321 kts 102°
2026-04-16 03:16 33.53373 135.49364 11562 ft 337 kts 103°
2026-04-16 03:16 33.52595 135.52110 12045 ft 354 kts 103°
2026-04-16 03:16 33.51785 135.54964 12494 ft 370 kts 103°
2026-04-16 03:17 33.50941 135.57936 12901 ft 388 kts 103°
2026-04-16 03:17 33.50044 135.61079 13462 ft 401 kts 104°
2026-04-16 03:17 33.49136 135.64252 14096 ft 410 kts 104°
2026-04-16 03:17 33.48195 135.67539 14773 ft 418 kts 104°
2026-04-16 03:18 33.47390 135.70857 15470 ft 422 kts 98°
2026-04-16 03:18 33.47069 135.74353 16065 ft 422 kts 83°
2026-04-16 03:18 33.47538 135.77782 16759 ft 416 kts 68°
2026-04-16 03:18 33.48658 135.80978 17329 ft 416 kts 54°
2026-04-16 03:19 33.50213 135.83836 17958 ft 415 kts 46°
2026-04-16 03:19 33.52153 135.86453 18582 ft 414 kts 37°
2026-04-16 03:19 33.54306 135.88678 19310 ft 413 kts 31°
2026-04-16 03:19 33.56611 135.90779 19894 ft 419 kts 29°
2026-04-16 03:20 33.58971 135.92835 20620 ft 421 kts 28°
2026-04-16 03:20 33.61383 135.94923 21327 ft 425 kts 28°
2026-04-16 03:20 33.63768 135.97011 21943 ft 430 kts 28°
2026-04-16 03:20 33.66206 135.99176 22561 ft 436 kts 28°
2026-04-16 03:21 33.68617 136.01346 23270 ft 438 kts 28°
2026-04-16 03:21 33.71080 136.03583 23796 ft 445 kts 28°
2026-04-16 03:21 33.73579 136.05865 24346 ft 451 kts 28°
2026-04-16 03:21 33.76085 136.08165 24815 ft 458 kts 28°
2026-04-16 03:22 33.78623 136.10500 25432 ft 461 kts 28°
2026-04-16 03:22 33.81177 136.12856 25751 ft 471 kts 28°
2026-04-16 03:22 33.83801 136.15276 26257 ft 476 kts 28°
2026-04-16 03:22 33.86453 136.17732 26819 ft 479 kts 28°
2026-04-16 03:23 33.89121 136.20207 27144 ft 487 kts 28°
2026-04-16 03:23 33.91792 136.22687 27682 ft 490 kts 28°
2026-04-16 03:23 33.94530 136.25238 28373 ft 489 kts 28°
2026-04-16 03:23 33.97196 136.27725 28850 ft 492 kts 27°
2026-04-16 03:24 33.99942 136.30283 29389 ft 494 kts 27°
2026-04-16 03:24 34.02676 136.32837 30005 ft 492 kts 27°
2026-04-16 03:24 34.05420 136.35405 30619 ft 489 kts 27°
2026-04-16 03:24 34.08174 136.37981 31155 ft 489 kts 27°
2026-04-16 03:25 34.11007 136.40622 31390 ft 496 kts 27°
2026-04-16 03:25 34.13815 136.43237 31776 ft 498 kts 27°
2026-04-16 03:25 34.16573 136.45815 32278 ft 496 kts 28°
2026-04-16 03:25 34.19451 136.48508 32667 ft 498 kts 27°
2026-04-16 03:26 34.22436 136.51303 33061 ft 500 kts 27°
2026-04-16 03:26 34.25496 136.54169 33467 ft 503 kts 27°
2026-04-16 03:26 34.28611 136.57089 33890 ft 505 kts 27°
2026-04-16 03:26 34.31713 136.60004 34430 ft 503 kts 27°
2026-04-16 03:27 34.34787 136.62868 34955 ft 501 kts 27°
2026-04-16 03:27 34.37818 136.65660 35325 ft 503 kts 27°
2026-04-16 03:27 34.40786 136.68381 35706 ft 503 kts 26°
2026-04-16 03:27 34.43671 136.71025 36060 ft 504 kts 27°
2026-04-16 03:28 34.46639 136.73743 36262 ft 508 kts 27°
2026-04-16 03:28 34.49632 136.76486 36588 ft 509 kts 27°
2026-04-16 03:28 34.52589 136.79211 36942 ft 508 kts 26°
2026-04-16 03:29 34.58197 136.84395 36954 ft 504 kts 26°
2026-04-16 03:29 34.63811 136.89594 36941 ft 505 kts 27°
2026-04-16 03:30 34.69832 136.95013 36937 ft 500 kts 23°
2026-04-16 03:30 34.76029 136.99615 36937 ft 487 kts 18°
2026-04-16 03:31 34.82647 137.03964 36939 ft 487 kts 17°
2026-04-16 03:31 34.89235 137.08209 36934 ft 483 kts 16°
2026-04-16 03:32 34.95866 137.12511 36947 ft 483 kts 17°
2026-04-16 03:34 35.22311 137.29991 36964 ft 476 kts 16°
2026-04-16 03:34 35.28916 137.34378 36971 ft 477 kts 17°
2026-04-16 03:35 35.35316 137.38650 36960 ft 478 kts 16°
2026-04-16 03:35 35.41783 137.43015 36970 ft 481 kts 19°
2026-04-16 03:35 35.44872 137.45668 36965 ft 496 kts 30°
2026-04-16 03:36 35.47479 137.49116 36977 ft 512 kts 45°
2026-04-16 03:36 35.49598 137.53448 36989 ft 525 kts 54°
2026-04-16 03:36 35.51411 137.57907 36976 ft 529 kts 56°
2026-04-16 03:37 35.54853 137.67125 37006 ft 528 kts 59°
2026-04-16 03:37 35.58179 137.76198 37020 ft 528 kts 58°
2026-04-16 03:38 35.61528 137.85315 37014 ft 531 kts 59°
2026-04-16 03:38 35.64862 137.94466 37014 ft 530 kts 57°
2026-04-16 03:39 35.69210 138.02661 37010 ft 501 kts 36°
2026-04-16 03:39 35.74970 138.08907 37012 ft 488 kts 28°
2026-04-16 03:40 35.80973 138.14629 36995 ft 488 kts 26°
2026-04-16 03:40 35.87117 138.20459 37002 ft 489 kts 27°
2026-04-16 03:41 35.93061 138.26224 37010 ft 487 kts 27°
2026-04-16 03:41 35.99060 138.32092 37023 ft 492 kts 28°
2026-04-16 03:42 36.05013 138.37956 37026 ft 491 kts 28°
2026-04-16 03:42 36.10857 138.43745 37026 ft 486 kts 28°
2026-04-16 03:43 36.16756 138.49582 37020 ft 488 kts 28°
2026-04-16 03:43 36.22640 138.55412 37017 ft 490 kts 28°
2026-04-16 03:44 36.28347 138.61101 37029 ft 489 kts 29°
2026-04-16 03:44 36.34195 138.66957 37024 ft 488 kts 30°
2026-04-16 03:45 36.40002 138.72774 37023 ft 486 kts 29°
2026-04-16 03:45 36.45781 138.78566 37036 ft 488 kts 30°
2026-04-16 03:46 36.51602 138.84410 37038 ft 491 kts 30°
2026-04-16 03:46 36.57456 138.90315 37059 ft 490 kts 30°
2026-04-16 03:47 36.63226 138.96149 37057 ft 485 kts 30°
2026-04-16 03:47 36.69005 139.01990 37080 ft 486 kts 30°
2026-04-16 03:48 36.74722 139.07782 37069 ft 485 kts 30°
2026-04-16 03:48 36.80552 139.13696 36952 ft 490 kts 30°
2026-04-16 03:48 36.83463 139.16655 37109 ft 490 kts 30°
2026-04-16 03:49 36.86297 139.19525 37021 ft 490 kts 31°
2026-04-16 03:49 36.91941 139.25244 36961 ft 482 kts 30°
2026-04-16 03:50 36.97476 139.30846 37006 ft 493 kts 30°
2026-04-16 03:50 37.02984 139.36440 37023 ft 481 kts 31°
2026-04-16 03:51 37.08261 139.41841 36645 ft 465 kts 31°
2026-04-16 03:51 37.10822 139.44459 36104 ft 463 kts 31°
2026-04-16 03:51 37.13320 139.47006 35337 ft 465 kts 31°
2026-04-16 03:51 37.15892 139.49625 34581 ft 470 kts 31°
2026-04-16 03:52 37.18471 139.52246 33828 ft 474 kts 32°
2026-04-16 03:52 37.21090 139.54916 32932 ft 475 kts 32°
2026-04-16 03:52 37.23640 139.57529 32218 ft 462 kts 32°
2026-04-16 03:52 37.26140 139.60106 31476 ft 454 kts 32°
2026-04-16 03:53 37.28610 139.62646 30375 ft 454 kts 32°
2026-04-16 03:53 37.31181 139.65286 29816 ft 452 kts 33°
2026-04-16 03:53 37.33656 139.67827 28886 ft 451 kts 33°
2026-04-16 03:53 37.36070 139.70337 27834 ft 447 kts 35°
2026-04-16 03:54 37.38368 139.72994 27531 ft 445 kts 39°
2026-04-16 03:54 37.40512 139.75833 27005 ft 453 kts 44°
2026-04-16 03:54 37.42497 139.78958 26428 ft 451 kts 48°
2026-04-16 03:54 37.44293 139.82136 25555 ft 447 kts 50°
2026-04-16 03:55 37.46009 139.85385 24730 ft 435 kts 51°
2026-04-16 03:55 37.47612 139.88531 24311 ft 425 kts 52°
2026-04-16 03:55 37.48576 139.90433 23884 ft 424 kts 52°
2026-04-16 03:55 37.50176 139.93582 23157 ft 423 kts 52°
2026-04-16 03:56 37.51747 139.96668 22607 ft 417 kts 51°
2026-04-16 03:56 37.53286 139.99683 21794 ft 407 kts 52°
2026-04-16 03:56 37.54788 140.02623 21262 ft 387 kts 51°
2026-04-16 03:56 37.56201 140.05385 20705 ft 375 kts 51°
2026-04-16 03:57 37.57630 140.08162 19874 ft 371 kts 51°
2026-04-16 03:57 37.59054 140.10898 19573 ft 381 kts 50°
2026-04-16 03:57 37.60481 140.13641 19239 ft 372 kts 50°
2026-04-16 03:57 37.61872 140.16332 18342 ft 365 kts 51°
2026-04-16 03:58 37.63245 140.18991 17428 ft 356 kts 51°
2026-04-16 03:58 37.64536 140.21506 17146 ft 340 kts 50°
2026-04-16 03:58 37.65860 140.24065 16759 ft 350 kts 50°
2026-04-16 03:58 37.67188 140.26627 15921 ft 349 kts 50°
2026-04-16 03:59 37.68492 140.29147 15019 ft 340 kts 50°
2026-04-16 03:59 37.69718 140.31545 14838 ft 322 kts 50°
2026-04-16 03:59 37.70986 140.34000 14449 ft 339 kts 50°
2026-04-16 03:59 37.72260 140.36461 13855 ft 334 kts 51°
2026-04-16 04:00 37.73494 140.38872 13661 ft 317 kts 51°
2026-04-16 04:00 37.74664 140.41168 13501 ft 303 kts 50°
2026-04-16 04:00 37.75782 140.43361 13369 ft 290 kts 50°
2026-04-16 04:00 37.76835 140.45493 13204 ft 281 kts 53°
2026-04-16 04:01 37.77560 140.47777 12935 ft 285 kts 69°
2026-04-16 04:01 37.77827 140.50275 12524 ft 291 kts 78°
2026-04-16 04:01 37.77939 140.52789 12186 ft 284 kts 79°
2026-04-16 04:01 37.78047 140.55258 11622 ft 281 kts 78°
2026-04-16 04:02 37.78189 140.57719 11010 ft 279 kts 77°
2026-04-16 04:02 37.78355 140.60129 10388 ft 277 kts 77°
2026-04-16 04:02 37.78580 140.62552 9790 ft 270 kts 71°
2026-04-16 04:02 37.79153 140.64639 9154 ft 259 kts 51°
2026-04-16 04:03 37.80352 140.66258 8518 ft 247 kts 30°
2026-04-16 04:03 37.81848 140.67282 7877 ft 243 kts 19°
2026-04-16 04:03 37.83458 140.67813 7248 ft 238 kts
2026-04-16 04:03 37.85089 140.67699 6661 ft 235 kts 353°
2026-04-16 04:04 37.86696 140.67436 6122 ft 234 kts 352°
2026-04-16 04:04 37.88314 140.67201 5859 ft 231 kts 353°
2026-04-16 04:04 37.89931 140.66997 5359 ft 233 kts 354°
2026-04-16 04:04 37.91557 140.66803 4791 ft 231 kts 354°
2026-04-16 04:05 37.93136 140.66617 4442 ft 222 kts 354°
2026-04-16 04:05 37.94644 140.66440 4384 ft 209 kts 354°
2026-04-16 04:05 37.96081 140.66266 4310 ft 198 kts 354°
2026-04-16 04:05 37.97453 140.66101 4251 ft 200 kts 354°
2026-04-16 04:06 37.98889 140.65929 4170 ft 199 kts 354°
2026-04-16 04:06 38.00264 140.65794 4081 ft 195 kts 359°
2026-04-16 04:06 38.01624 140.66010 3924 ft 192 kts 12°
2026-04-16 04:06 38.02919 140.66449 3764 ft 186 kts 13°
2026-04-16 04:07 38.04155 140.66840 3557 ft 177 kts 11°
2026-04-16 04:07 38.06599 140.67517 3186 ft 178 kts 10°
2026-04-16 04:07 38.07812 140.67857 2975 ft 170 kts 11°
2026-04-16 04:08 38.08929 140.68178 2816 ft 169 kts 13°
2026-04-16 04:08 38.09959 140.68802 2666 ft 175 kts 39°
2026-04-16 04:08 38.10574 140.70190 2535 ft 180 kts 68°
2026-04-16 04:08 38.10890 140.71721 2415 ft 171 kts 66°
2026-04-16 04:09 38.11249 140.73148 2296 ft 168 kts 64°
2026-04-16 04:09 38.11621 140.74559 2177 ft 168 kts 65°
2026-04-16 04:09 38.11981 140.75990 2073 ft 166 kts 66°
2026-04-16 04:09 38.12302 140.77287 1953 ft 165 kts 65°
2026-04-16 04:10 38.12658 140.78676 1825 ft 161 kts 65°
2026-04-16 04:10 38.12913 140.79977 1718 ft 162 kts 74°
2026-04-16 04:10 38.13036 140.81346 1449 ft 161 kts 77°
2026-04-16 04:10 38.13144 140.82606 1186 ft 159 kts 78°
2026-04-16 04:11 38.13266 140.83853 955 ft 153 kts 78°
2026-04-16 04:11 38.13390 140.85072 785 ft 146 kts 78°
2026-04-16 04:11 38.13509 140.86202 622 ft 135 kts 78°
2026-04-16 04:11 38.13620 140.87332 430 ft 134 kts 81°
2026-04-16 04:12 38.13724 140.88472 291 ft 133 kts 80°
2026-04-16 04:12 38.13844 140.89625 95 ft 132 kts 80°
2026-04-16 04:12 38.13972 140.90778 12 ft 116 kts 83°
2026-04-16 04:12 38.14041 140.91449 12 ft 62 kts 81°
2026-04-16 04:13 38.13988 140.91803 12 ft 32 kts 169°
2026-04-16 04:13 38.13931 140.92026 11 ft 28 kts 83°
2026-04-16 04:13 38.13959 140.92279 12 ft 27 kts 83°
2026-04-16 04:13 38.13982 140.92513 12 ft 26 kts 82°
2026-04-16 04:14 38.14005 140.92734 15 ft 20 kts 82°
2026-04-16 04:14 38.13986 140.92835 15 ft 10 kts 176°
2026-04-16 04:14 38.13913 140.92841 17 ft 10 kts 171°
2026-04-16 04:14 38.13874 140.92847 18 ft 0 kts 172°